Location: Hope
(40.9110°N, 74.9680°W)
Time: 06:06:41
(UTC-05:00)

Tiangong 2 - Visible Passes

Search period start: 24 January 2019 00:00
Search period end: 03 February 2019 00:00
Orbit: 380 x 392 km, 42.8° (Epoch: 24 January)

Date Brightness Start Highest point End Pass type
(mag) Time Alt. Az. Time Alt. Az. Time Alt. Az.
24 Jan 1.9 05:21:24 48° ENE 05:21:24 48° ENE 05:23:55 10° E visible
25 Jan 1.1 05:57:22 35° W 05:58:31 73° SSW 06:01:43 10° ESE visible
26 Jan 3.3 05:01:07 26° E 05:01:07 26° E 05:02:41 10° E visible
26 Jan 2.5 06:33:22 10° W 06:36:06 27° SSW 06:38:52 10° SSE visible
27 Jan 1.6 05:37:09 45° SSW 05:37:10 45° SSW 05:40:14 10° SE visible
28 Jan 4.4 04:40:59 13° ESE 04:40:59 13° ESE 04:41:20 10° ESE visible
28 Jan 3.2 06:13:15 13° WSW 06:14:35 16° SW 06:16:39 10° S visible
29 Jan 3.3 05:17:09 19° SSE 05:17:09 19° SSE 05:18:28 10° SSE visible
